Lid_Strength_Index
3 2 2 3 4 5 6 6 6 3 3 6 7 7 8 8 7 6 6 6 7 8 8 9 9 9 8 6 7 8 8 8 10 10 7 8 8 9 9 11 13 12 13 13
3 2 2 3 4 5 5 6 5 2 3 8 7 7 7 7 7 8 7 8 7 7 8 10 9 8 6 6 7 8 7 9 11 11 9 8 9 9 9 9 10 13 13 12
3 2 2 4 4 5 4 4 7 5 6 7 8 7 8 8 6 7 6 7 6 7 8 7 9 8 7 7 6 5 5 9 10 11 11 9 10 10 10 9 11 12 11 12
2 2 2 3 4 5 4 5 7 6 7 7 8 8 8 8 8 6 6 7 7 8 9 9 9 7 7 7 6 7 6 10 9 9 9 9 10 10 10 10 9 11 10 11
2 2 2 3 4 5 3 5 6 5 6 7 8 9 8 8 8 6 7 7 8 6 8 8 9 8 7 8 6 7 7 10 9 11 9 9 10 10 9 10 10 10 10 11
2 2 2 3 4 5 3 3 4 4 8 8 8 8 7 7 6 6 5 6 6 7 7 7 7 6 7 7 7 8 8 9 10 12 10 10 11 9 9 10 10 10 12 10
2 2 2 2 3 4 4 3 3 5 7 6 7 8 7 8 7 7 6 5 6 5 5 6 7 7 7 7 8 7 8 9 9 11 11 15 9 7 8 9 10 9 9 8
2 2 2 2 3 3 4 3 3 5 7 6 6 7 7 6 5 6 6 5 5 6 6 6 8 8 8 8 8 8 7 8 11 12 12 11 9 8 8 9 9 7 9 8
2 2 3 2 3 3 4 3 2 4 6 7 6 6 6 7 6 6 6 4 4 5 6 7 11 11 10 10 9 8 8 7 9 11 13 14 10 7 5 7 11 7 7 8
2 3 3 3 3 3 3 2 2 3 6 4 5 6 6 6 6 6 6 5 5 6 7 9 10 11 10 13 11 10 9 9 10 11 12 10 7 6 5 12 10 7 7 7
2 3 3 3 3 2 2 1 0 2 5 4 3 4 5 5 5 7 6 6 6 6 9 9 10 11 10 11 10 10 10 11 11 11 12 13 6 7 9 8 6 6 6 6
2 3 3 3 2 1 2 2 0 1 3 4 3 2 2 3 3 4 5 6 7 6 8 8 9 11 10 11 13 8 12 8 9 9 9 7 6 6 5 5 6 6 6 5
2 3 3 2 2 1 2 1 2 2 3 4 3 4 1 1 2 2 5 4 4 5 4 7 8 10 8 12 11 10 8 7 9 9 8 7 6 5 4 4 5 5 4 4
2 3 3 2 2 2 2 2 2 2 3 6 5 2 2 2 1 2 3 3 4 4 4 6 7 8 7 9 9 9 7 7 9 9 7 6 5 5 4 5 4 4 4 4
2 3 3 2 2 2 2 2 2 1 3 6 5 3 3 3 3 3 2 3 3 4 6 6 8 6 7 7 7 9 7 8 10 9 7 6 6 4 4 4 5 4 4 4
2 3 4 3 2 2 1 3 1 2 2 4 7 4 3 3 3 3 4 4 4 4 6 7 6 6 7 9 10 7 6 5 5 6 4 4 4 4 4 4 4 3 3 3
3 4 4 3 3 1 3 4 1 3 1 4 7 7 3 3 3 3 4 5 6 5 6 6 6 6 6 8 11 7 5 5 5 4 4 5 4 5 4 3 4 3 3 3
5 5 4 3 3 3 2 1 3 2 3 3 8 7 6 3 5 6 5 5 5 6 7 6 7 7 7 11 7 6 5 5 4 4 3 4 3 3 3 3 3 3 3 3
5 4 3 1 2 3 2 1 1 1 2 7 7 9 9 4 5 5 5 5 7 6 7 7 7 9 12 7 6 6 5 5 5 4 4 4 4 4 4 3 3 4 3 3
5 3 3 5 2 0 0 1 4 3 4 4 7 5 8 5 5 6 6 6 8 10 8 7 8 9 6 6 6 6 4 4 4 5 5 5 5 4 4 4 3 3 3 3
3 4 4 2 1 2 4 6 7 6 8 6 6 6 7 4 7 7 6 8 8 10 9 9 9 10 7 5 5 6 5 3 3 4 4 4 3 3 4 3 3 3 2 2
5 4 4 2 3 5 8 9 7 8 9 6 7 6 5 5 4 6 6 8 8 11 7 9 12 7 5 5 5 5 5 4 4 3 3 3 3 3 3 3 3 2 2 2
3 3 5 6 6 11 11 12 10 10 7 6 6 7 5 6 5 7 7 10 10 8 10 12 9 6 6 5 4 5 5 4 4 3 3 3 3 2 2 3 2 2 2 2
5 7 12 9 10 9 9 8 8 6 5 6 5 6 6 5 7 7 9 8 8 11 12 11 7 6 6 5 5 5 5 5 4 4 3 3 3 3 3 3 2 2 3 2
6 7 12 9 7 6 6 5 5 5 5 5 6 6 6 7 8 7 8 10 12 10 11 8 7 5 5 5 6 5 5 5 4 3 3 3 3 3 3 2 2 2 2 2
5 6 8 7 8 8 6 6 6 4 6 5 5 7 8 9 8 10 11 11 12 9 7 6 5 6 5 5 6 5 4 4 4 4 4 4 4 4 4 3 2 2 2 2
6 7 5 6 6 7 6 5 5 5 6 7 7 10 10 7 9 10 8 10 7 6 6 5 5 5 6 5 5 5 5 5 5 5 5 5 4 4 3 3 3 2 2 1